Change the Weather History Date:

Saturday, October 27, 2012

  Actual Average (KHUF) Record (KHUF)
Temperature  
Mean Temperature 42 °F 51 °F  
Max Temperature 51 °F 62 °F 85 °F (1963)
Min Temperature 33 °F 40 °F 24 °F (1962)
Degree Days  
Heating Degree Days 23 14  
Month to date heating degree days 288  
Since 1 July heating degree days 366  
Cooling Degree Days 0 0  
Month to date cooling degree days 12  
Year to date cooling degree days 990  
Moisture  
Dew Point 34 °F    
Average Humidity 74    
Maximum Humidity 93    
Minimum Humidity 54    
Precipitation  
Precipitation 0.01 in 0.11 in 1.60 in (1991)
Month to date precipitation 3.16  
Year to date precipitation 37.86  
Sea Level Pressure  
Sea Level Pressure 30.22 in    
Wind  
Wind Speed 7 mph (North)    
Max Wind Speed 15 mph    
Max Gust Speed 24 mph    
Visibility 9 miles    
Events      
T = Trace of Precipitation, MM = Missing Value Source: NWS Daily Summary

Daily Weather History Graph

Daily Weather History Graph

Search for Another Location

Airport or City:

Trip Planner

Search our weather history database for the weather conditions in past years. The results will help you decide how hot, cold, wet, or windy it might be!

Date:

Astronomy

Oct. 27, 2012 Rise Set
Actual Time 7:14 AM CDT 5:54 PM CDT
Civil Twilight 6:46 AM CDT 6:21 PM CDT
Nautical Twilight 6:14 AM CDT 6:53 PM CDT
Astronomical Twilight 5:43 AM CDT 7:24 PM CDT
Moon 4:39 PM CDT (10/27) 5:09 AM CDT (10/27)
Length of Visible Light 11h 35m
Length of Day
10h 39m
Waxing Gibbous, 96% of the Moon is Illuminated
Oct 27
Waxing Gibbous
Oct 29
Full
Nov 6
Last Quarter
Nov 13
New
Nov 20
First Quarter

Hourly Weather History & Observations

Time (CDT) Temp. Windchill Dew Point Humidity Pressure Visibility Wind Dir Wind Speed Gust Speed Precip Events Conditions
12:15 AM 36.5 °F 33.9 °F 32.0 °F 84% 30.26 in 10.0 mi North 3.5 mph - N/A   Clear
12:35 AM 36.0 °F 31.1 °F 32.0 °F 86% 30.25 in 10.0 mi NNW 5.8 mph - N/A   Clear
12:55 AM 35.6 °F 31.7 °F 32.0 °F 87% 30.26 in 10.0 mi NNW 4.6 mph - N/A   Clear
1:15 AM 33.3 °F 28.9 °F 31.5 °F 93% 30.24 in 10.0 mi NNW 4.6 mph - N/A   Clear
1:35 AM 33.8 °F 29.6 °F 32.0 °F 93% 30.24 in 10.0 mi NNW 4.6 mph - N/A   Clear
1:55 AM 34.7 °F 30.6 °F 31.8 °F 89% 30.24 in 10.0 mi NNW 4.6 mph - N/A   Clear
2:15 AM 34.7 °F 29.6 °F 31.6 °F 89% 30.24 in 10.0 mi NNW 5.8 mph - N/A   Clear
2:35 AM 34.7 °F 28.1 °F 31.8 °F 89% 30.23 in 10.0 mi NNW 8.1 mph - N/A   Clear
2:55 AM 34.7 °F 30.6 °F 31.8 °F 89% 30.24 in 10.0 mi NNW 4.6 mph - N/A   Clear
3:15 AM 33.8 °F 27.7 °F 32.0 °F 93% 30.23 in 10.0 mi NNW 6.9 mph - N/A   Clear
3:35 AM 34.2 °F 29.0 °F 31.6 °F 90% 30.23 in 10.0 mi NNW 5.8 mph - N/A   Clear
3:55 AM 33.8 °F 28.6 °F 31.6 °F 92% 30.24 in 10.0 mi NNW 5.8 mph - N/A   Clear
4:15 AM 33.8 °F 27.7 °F 31.5 °F 91% 30.24 in 10.0 mi NNW 6.9 mph - N/A   Clear
4:35 AM 34.2 °F 29.0 °F 31.6 °F 90% 30.24 in 10.0 mi NNW 5.8 mph - N/A   Clear
4:55 AM 34.2 °F 29.0 °F 31.5 °F 90% 30.24 in 10.0 mi NNW 5.8 mph - N/A   Clear
5:15 AM 34.7 °F 28.8 °F 31.6 °F 89% 30.24 in 10.0 mi North 6.9 mph - N/A   Clear
5:35 AM 34.7 °F 29.6 °F 31.8 °F 89% 30.24 in 10.0 mi North 5.8 mph - N/A   Clear
5:55 AM 33.8 °F 29.6 °F 31.1 °F 90% 30.24 in 10.0 mi NW 4.6 mph - N/A   Clear
6:15 AM 33.8 °F 29.6 °F 31.5 °F 91% 30.24 in 10.0 mi North 4.6 mph - N/A   Clear
6:55 AM 34.2 °F 30.0 °F 31.5 °F 90% 30.24 in 10.0 mi North 4.6 mph - N/A   Clear
7:15 AM 33.8 °F 28.6 °F 31.3 °F 90% 30.24 in 10.0 mi NNW 5.8 mph - N/A   Clear
7:35 AM 33.8 °F 27.0 °F 31.6 °F 92% 30.25 in 10.0 mi NNW 8.1 mph - N/A   Clear
7:55 AM 34.7 °F 28.8 °F 32.0 °F 90% 30.25 in 10.0 mi NNW 6.9 mph - N/A   Clear
8:15 AM 35.8 °F 30.1 °F 32.0 °F 86% 30.25 in 10.0 mi NNW 6.9 mph - N/A   Clear
8:35 AM 37.4 °F 32.8 °F 32.7 °F 83% 30.25 in 10.0 mi North 5.8 mph - N/A   Clear
8:55 AM 39.2 °F 33.0 °F 33.8 °F 81% 30.26 in 10.0 mi North 9.2 mph - N/A   Clear
9:15 AM 40.3 °F 34.4 °F 33.8 °F 78% 30.25 in 10.0 mi North 9.2 mph - N/A   Clear
9:35 AM 41.5 °F 37.8 °F 34.0 °F 75% 30.25 in 10.0 mi North 5.8 mph - N/A   Clear
10:15 AM 44.2 °F 39.2 °F 34.9 °F 70% 30.26 in 10.0 mi NNE 9.2 mph - N/A   Clear
10:35 AM 45.5 °F 40.8 °F 34.5 °F 65% 30.26 in 10.0 mi North 9.2 mph - N/A   Clear
10:55 AM 47.1 °F - 35.1 °F 63% 30.27 in 10.0 mi North 11.5 mph 17.3 mph N/A   Clear
11:15 AM 48.0 °F - 36.3 °F 64% 30.26 in 10.0 mi NNE 11.5 mph 17.3 mph N/A   Clear
11:35 AM 48.2 °F - 35.6 °F 62% 30.26 in 10.0 mi NNE 13.8 mph 21.9 mph N/A   Clear
11:55 AM 48.6 °F - 35.6 °F 61% 30.24 in 10.0 mi NNE 15.0 mph 23.0 mph N/A   Scattered Clouds
12:15 PM 50.0 °F - 36.3 °F 59% 30.24 in 10.0 mi North 11.5 mph 19.6 mph N/A   Scattered Clouds
12:35 PM 49.5 °F - 35.8 °F 59% 30.22 in 10.0 mi North 10.4 mph 21.9 mph N/A   Scattered Clouds
12:55 PM 50.2 °F - 36.3 °F 59% 30.22 in 10.0 mi NNE 13.8 mph 20.7 mph N/A   Scattered Clouds
1:15 PM 50.5 °F - 36.1 °F 58% 30.20 in 10.0 mi North 11.5 mph 18.4 mph N/A   Scattered Clouds
1:35 PM 50.7 °F - 35.8 °F 57% 30.19 in 10.0 mi NNE 12.7 mph 20.7 mph N/A   Scattered Clouds
1:55 PM 51.1 °F - 36.1 °F 57% 30.19 in 10.0 mi North 13.8 mph 19.6 mph N/A   Clear
2:15 PM 51.3 °F - 36.1 °F 56% 30.18 in 10.0 mi North 11.5 mph 20.7 mph N/A   Scattered Clouds
2:35 PM 51.8 °F - 35.8 °F 54% 30.18 in 10.0 mi North 10.4 mph 24.2 mph N/A   Scattered Clouds
2:55 PM 51.3 °F - 35.8 °F 55% 30.18 in 7.0 mi North 10.4 mph - N/A   Clear
3:15 PM 50.9 °F - 35.8 °F 56% 30.18 in 10.0 mi North 11.5 mph 18.4 mph N/A   Scattered Clouds
3:35 PM 51.1 °F - 35.6 °F 55% 30.18 in 10.0 mi NNE 11.5 mph 18.4 mph N/A   Scattered Clouds
3:55 PM 50.0 °F - 35.1 °F 57% 30.18 in 10.0 mi NNW 9.2 mph 17.3 mph N/A   Scattered Clouds
4:15 PM 50.2 °F - 35.4 °F 57% 30.18 in 7.0 mi North 8.1 mph - N/A   Scattered Clouds
4:35 PM 49.5 °F - 34.5 °F 56% 30.19 in 10.0 mi North 8.1 mph - N/A   Scattered Clouds
4:55 PM 49.3 °F - 35.4 °F 59% 30.19 in 7.0 mi North 6.9 mph - N/A   Scattered Clouds
5:15 PM 48.7 °F - 34.7 °F 58% 30.20 in 10.0 mi North 8.1 mph - N/A   Scattered Clouds
5:35 PM 48.2 °F - 34.7 °F 60% 30.20 in 7.0 mi North 10.4 mph 17.3 mph N/A   Scattered Clouds
5:55 PM 47.3 °F - 34.7 °F 62% 30.20 in 7.0 mi North 5.8 mph - N/A   Scattered Clouds
6:15 PM 46.6 °F - 35.1 °F 64% 30.20 in 7.0 mi North 5.8 mph - N/A   Scattered Clouds
6:35 PM 46.4 °F 44.3 °F 35.1 °F 65% 30.21 in 7.0 mi North 4.6 mph - N/A   Scattered Clouds
6:55 PM 45.5 °F 42.5 °F 35.4 °F 68% 30.21 in 7.0 mi North 5.8 mph - N/A   Scattered Clouds
7:15 PM 45.1 °F 40.8 °F 34.7 °F 67% 30.21 in 10.0 mi NNE 8.1 mph - N/A   Scattered Clouds
7:35 PM 44.6 °F 40.7 °F 34.7 °F 68% 30.21 in 7.0 mi North 6.9 mph - N/A   Clear
7:55 PM 44.2 °F 39.7 °F 34.9 °F 70% 30.20 in 10.0 mi North 8.1 mph - N/A   Clear
8:15 PM 43.7 °F 38.6 °F 35.1 °F 72% 30.20 in 10.0 mi North 9.2 mph - N/A   Clear
8:35 PM 43.2 °F 37.9 °F 34.7 °F 72% 30.21 in 10.0 mi North 9.2 mph - N/A   Clear
8:55 PM 42.6 °F 37.8 °F 34.7 °F 74% 30.21 in 7.0 mi North 8.1 mph - N/A   Clear
9:15 PM 41.9 °F 36.3 °F 34.7 °F 76% 30.21 in 10.0 mi North 9.2 mph - N/A   Clear
9:35 PM 41.4 °F 35.7 °F 34.5 °F 77% 30.21 in 10.0 mi North 9.2 mph 16.1 mph N/A   Clear
9:55 PM 41.0 °F 34.3 °F 34.0 °F 76% 30.21 in 10.0 mi North 11.5 mph 16.1 mph N/A   Clear
10:15 PM 40.6 °F 34.8 °F 33.4 °F 75% 30.21 in 10.0 mi NNE 9.2 mph - N/A   Clear
10:35 PM 40.1 °F 35.3 °F 33.3 °F 77% 30.20 in 7.0 mi North 6.9 mph 17.3 mph N/A   Clear
10:55 PM 39.2 °F 35.0 °F 33.8 °F 81% 30.21 in 7.0 mi North 5.8 mph - N/A   Clear
11:15 PM 39.2 °F 35.0 °F 32.7 °F 78% 30.21 in 7.0 mi North 5.8 mph - N/A   Clear
11:35 PM 38.8 °F 32.6 °F 32.4 °F 78% 30.20 in 10.0 mi North 9.2 mph - N/A   Clear
11:55 PM 38.3 °F 33.9 °F 32.2 °F 79% 30.20 in 10.0 mi North 5.8 mph - N/A   Clear